Simultaneous Nadir Overpasses (SNOs) Predictions

Prediction of SNOs between GOES-16 and AQUA Satellite Orbit:

Table of predicted SNOs for the next 14.0 days since TLE Epoch: 8/16/2019
Index Date Time (GOES-16) GOES-16 Lat,Lon AQUA Lat,Lon Distance(km) Time Diff (sec)
1 08/17/2019 06:17:12 -0.04, -75.17 -0.95, -70.90 484.82 80
2 08/17/2019 18:38:36 0.04, -75.19 -0.15, -76.09 103.21 80
3 08/19/2019 18:29:05 0.04, -75.23 0.48, -73.14 237.03 80
4 08/20/2019 06:50:21 -0.05, -75.23 0.61, -78.30 349.48 80
5 08/22/2019 06:38:10 -0.05, -75.27 -0.02, -75.35 8.82 80
6 08/24/2019 06:23:19 -0.05, -75.32 -0.66, -72.39 332.02 80
7 08/24/2019 18:44:43 0.06, -75.34 -0.45, -77.58 256.11 80
8 08/26/2019 18:35:13 0.06, -75.38 0.25, -74.64 84.88 80
9 08/28/2019 18:23:02 0.07, -75.43 0.88, -71.69 426.08 80
10 08/29/2019 06:44:18 -0.07, -75.44 0.20, -76.85 159.85 80




NCC Satellite Simultaneous Nadir Overpasses (SNOs) Prediction Service
